Visalia, CA

5:00 PM PDT on October 14, 2019 (GMT -0700)
Visalia Municipal

Weather History for KVIS - August, 2019

Change the Weather History Date:

Friday, August 30, 2019

  Actual Average Record
Temperature  
Mean Temperature 77 °F -  
Max Temperature 93 °F 92 °F 107 °F (1950)
Min Temperature 63 °F 62 °F 49 °F (1957)
Cooling Degree Days 12    
Growing Degree Days 27 (Base 50)    
Moisture  
Dew Point 62 °F    
Average Humidity 60    
Maximum Humidity 90    
Minimum Humidity 38    
Precipitation  
Precipitation 0.00 in - - ()
Sea Level Pressure  
Sea Level Pressure 29.96 in    
Wind  
Wind Speed 7 mph (WNW)    
Max Wind Speed 12 mph    
Max Gust Speed -    
Visibility 10 miles    
Events      
Averages and records for this station are not official NWS values.
T = Trace of Precipitation, MM = Missing Value Source: NWS Daily Summary

Daily Weather History Graph

Daily Weather History Graph

Search for Another Location

Airport or City:

Astronomy

Aug. 30, 2019 Rise Set
Actual Time 6:27 AM PDT 7:28 PM PDT
Civil Twilight 6:00 AM PDT 7:54 PM PDT
Nautical Twilight 5:29 AM PDT 8:26 PM PDT
Astronomical Twilight 4:57 AM PDT 8:58 PM PDT
Moon 6:35 AM PDT (8/30) 8:08 PM PDT (8/30)
Length of Visible Light 13h 53m
Length of Day
13h 01m
New Moon, 0% of the Moon is Illuminated
Aug 30
New Moon
Sep 5
First Quarter
Sep 13
Full
Sep 21
Last Quarter
Sep 28
New

Hourly Weather History & Observations

Time (PDT) Temp. Heat Index Dew Point Humidity Pressure Visibility Wind Dir Wind Speed Gust Speed Precip Events Conditions
12:56 AM 75.0 °F - 63.0 °F 66% 29.96 in 10.0 mi NW 11.5 mph - N/A   Clear
1:56 AM 72.0 °F - 63.0 °F 73% 29.97 in 10.0 mi WNW 9.2 mph - N/A   Clear
2:56 AM 70.0 °F - 62.1 °F 76% 29.97 in 10.0 mi WNW 9.2 mph - N/A   Clear
3:56 AM 66.9 °F - 61.0 °F 81% 29.98 in 10.0 mi NW 5.8 mph - N/A   Clear
4:56 AM 66.0 °F - 60.1 °F 81% 29.99 in 10.0 mi WNW 5.8 mph - N/A   Clear
5:56 AM 64.0 °F - 60.1 °F 87% 30.00 in 10.0 mi West 4.6 mph - N/A   Clear
6:56 AM 63.0 °F - 60.1 °F 90% 30.02 in 10.0 mi Calm Calm - N/A   Clear
7:56 AM 66.0 °F - 60.1 °F 81% 30.03 in 10.0 mi West 3.5 mph - N/A   Clear
8:56 AM 70.0 °F - 57.9 °F 65% 30.04 in 10.0 mi West 3.5 mph - N/A   Clear
9:56 AM 73.0 °F - 59.0 °F 61% 30.04 in 10.0 mi Variable 4.6 mph - N/A   Clear
10:56 AM 77.0 °F - 61.0 °F 58% 30.03 in 10.0 mi Variable 4.6 mph - N/A   Clear
11:56 AM 81.0 °F 81.9 °F 62.1 °F 52% 30.01 in 10.0 mi WNW 4.6 mph - N/A   Clear
12:56 PM 84.0 °F 84.9 °F 63.0 °F 49% 29.99 in 10.0 mi WSW 5.8 mph - N/A   Clear
1:56 PM 88.0 °F 88.4 °F 62.1 °F 42% 29.97 in 10.0 mi WNW 6.9 mph - N/A   Clear
2:56 PM 89.1 °F 90.0 °F 63.0 °F 42% 29.94 in 10.0 mi West 5.8 mph - N/A   Clear
3:56 PM 90.0 °F 91.3 °F 64.0 °F 42% 29.92 in 10.0 mi WSW 6.9 mph - N/A   Clear
4:56 PM 91.9 °F 94.1 °F 64.9 °F 41% 29.90 in 10.0 mi West 9.2 mph - N/A   Clear
5:56 PM 91.9 °F 93.3 °F 64.0 °F 39% 29.88 in 10.0 mi North 5.8 mph - N/A   Clear
6:56 PM 91.0 °F 91.5 °F 62.1 °F 38% 29.88 in 10.0 mi NW 5.8 mph - N/A   Clear
7:56 PM 84.9 °F 86.1 °F 64.0 °F 49% 29.89 in 10.0 mi West 4.6 mph - N/A   Clear
8:56 PM 82.0 °F 83.8 °F 64.9 °F 56% 29.91 in 10.0 mi West 4.6 mph - N/A   Clear
9:56 PM 80.1 °F 81.9 °F 64.9 °F 60% 29.92 in 10.0 mi WNW 4.6 mph - N/A   Clear
10:56 PM 79.0 °F - 64.0 °F 60% 29.92 in 10.0 mi WNW 5.8 mph - N/A   Clear
11:56 PM 77.0 °F - 63.0 °F 62% 29.93 in 10.0 mi NW 6.9 mph - N/A   Clear